Location: Lugrin
(46.4033°N, 6.6674°E)
Time: 02:35:50
(UTC+00:00)

Ariane Rocket - Pass Details

Date: 18 September 2020
Orbit: 760 x 770 km, 98.7° (Epoch: 29 October)

Event Time Altitude Azimuth Distance (km) Brightness Sun altitude
Exits shadow 18:09:44 - 129° (SE) 2,900 5.5 -6.2°
Reaches altitude 10° 18:11:27 10° 120° (ESE) 2,297 4.9 -6.5°
Maximum altitude 18:15:41 28° 63° (ENE) 1,420 4.0 -7.2°
Drops below altitude 10° 18:19:56 10° 6° (N) 2,315 5.6 -8.0°
Sets 18:22:32 0° 355° (N) 3,247 6.5 -8.4°
